Weather in Ivanovskoye

Russia / Kostroma Oblast     57°38′41″N   41°23′01″E
temp.,
°C
wind,
m/s
gust,
m/s
humid.,
%
clouds,
%
prec.,
mm/h
press.,
hPa
HPBL,
m
15 april, thu
thu1500:00+10ssw2268100 0.0 101835
03:00+9wsw1173100 0.0 101810
06:00+7nne3690100 0.0 1019136
09:00+11ne4687100 0.0 1020419
12:00+11nne5777100 0.0 1021641
15:00+11ne5876100 0.0 1022761
18:00+8ne51179100 0.0 1023719
21:00+6ene51479100 0.0 1025629
16 april, fri
fri1600:00+5ene5147892 0.0 1025614
03:00+4ene5138698 0.0 1026564
06:00+3ene51377100 0.0 1027501
09:00+6ene5105965 0.0 1028563
12:00+10ene584617 0.0 1028920
15:00+11ene573716 0.0 10271112
18:00+10ene584738 0.0 1028919
21:00+6ene412645 0.0 1029421
17 april, sat
sat1700:00+4ene412745 0.0 1030363
03:00+2ene311799 0.0 1030296
06:00+2ene412785 0.0 1031324
09:00+7ene49535 0.0 1031646
12:00+11ene57395 0.0 10301195
15:00+12ene46375 0.0 10291394
18:00+10ene37470 0.0 1028533
21:00+5ne39690 0.0 1029164
18 april, sun
sun1800:00+4ne39770 0.0 1029190
03:00+2ne310815 0.0 1029211
06:00+2ene39805 0.0 1029232
09:00+8ene475447 0.0 1029657
12:00+10ne4644100 0.0 10281270
15:00+11ne4646100 0.0 10281469
18:00+9ene5857100 0.0 1028937
21:00+5ene4972100 0.0 1030697
19 april, mon
mon1900:00+3ene3107596 0.0 1031497
03:00+1ene3106844 0.0 1032336
06:000ene411715 0.0 1033390
09:00+4e58440 0.0 1034995
12:00+7e57340 0.0 10341598
15:00+8e46300 0.0 10331766
18:00+7e36381 0.0 10331070
21:00+2e29624 0.0 1035174